DELTA 1 DEB, 10830

Orbit data source: Space-Track

DELTA 1 DEB, 10830 is space debris in SSO originally from a launch on Thu, 29 Jul 1976 UTC launched from the Air Force Western Test Range (AFWTR). Debris objects in space refer to the collection of defunct objects orbiting the Earth. Examples of debris include non-operational satellites, rocket bodies, and fragments generated from explosions, collisions, or faulty payload assembly.

Loading next visibility...
Identifier
10830, 1976-077CA
Orbit
SSO
Country
Flag of USUS
Related business
Manufacturer
Unknown
Mission
Spacecraft
Bus & Motor
Unknown
Mass
Unknown
Launch date (UTC)
1976-07-29 (50 years ago)
Launch vehicle
Unknown
Launch site
Air Force Western Test Range (AFWTR)
Object type
Payload
Rocket body
Debris
Shape & HBR
Unknown shape, 0.2 m
Radar Cross Section
Medium (>0.1 m² and <1 m²)

Expand to show TLE details & history
Last TLE update: 17 hours ago

TLE from 17 hours ago
0 DELTA 1 DEB
1 10830U 76077CA  26255.53251172 -.00000049  00000-0 -53800-4 0  9990
2 10830 101.9254 355.3194 0088590  42.2677 332.0222 12.28447488247346
Epoch: 2026-09-12T12:46Z
TLE epoch observation values (Epoch: 2026-09-12T12:46:49.012Z)
Latitude
13.47664°
Longitude
169.18812°
Altitude
1,495.821 km
Speed
7.145 km/s
True Right ascension
23h 29m 43s
True Declination
13° 24' 22"
Sunlit
Object was in full shadow at epoch
Visualization orbit readout
Latitude
Unknown
Longitude
Unknown
Altitude
Unknown
Speed
Unknown
Apparent Right ascension
Unknown
Apparent Declination
Unknown
Sunlit
N/A
Visualization observer readout
Local Sidereal Time
21:46:13
Azimuth
Unknown
Elevation
Unknown
Doppler factor
Unknown
Orbital elements
Apogee altitude
1,623.811 km
Perigee altitude
1,483.277 km
Semi-major axis
7,931.681 km
Eccentricity
0.00886
Inclination
101.9254°
RAAN
355.3194°
Arg. of periapsis
42.2677°
True anomaly
331.54126°
Mean anomaly
332.0222°
Eccentric anomaly
331.7822°
Mean motion
3.07252 °/min
Orbital period
117.17 mins
BSTAR
-0.0000538
Loading maneuver chart data...
Computing Atmospheric mass density...
Loading historical data...
Loading historical data...
Loading historical data...
Loading historical data...
Loading historical data...
Loading historical data...
Loading historical data...

Documentation

Showing up to 5 results
|